Fecha, hora, temperatura, viento dirección y velocidad, humedad y presión.

  • 17-07-2019 00:00:00 | 11.70°C | Oeste |18.00 km/h | 94.00% | 852.80 hPa
  • 16-07-2019 23:00:00 | 12.00°C | Oeste |19.00 km/h | 94.00% | 852.80 hPa
  • 16-07-2019 22:00:00 | 12.30°C | Oeste |22.00 km/h | 94.00% | 852.50 hPa
  • 16-07-2019 21:00:00 | 12.70°C | Oeste |21.00 km/h | 94.00% | 852.40 hPa
  • 16-07-2019 20:00:00 | 12.80°C | Oeste |22.00 km/h | 94.00% | 852.40 hPa
  • 16-07-2019 19:00:00 | 13.20°C | Oeste |24.00 km/h | 93.00% | 852.30 hPa
  • 16-07-2019 18:00:00 | 13.60°C | Oeste |25.00 km/h | 91.00% | 852.40 hPa
  • 16-07-2019 17:00:00 | 14.20°C | Oeste |25.00 km/h | 88.00% | 852.60 hPa
  • 16-07-2019 16:00:00 | 14.90°C | Oeste |26.00 km/h | 84.00% | 852.60 hPa
  • 16-07-2019 15:00:00 | 15.50°C | Oeste |24.00 km/h | 82.00% | 852.70 hPa
  • 16-07-2019 14:00:00 | 15.90°C | Oeste |22.00 km/h | 80.00% | 852.70 hPa
  • 16-07-2019 13:00:00 | 14.80°C | Oeste |22.00 km/h | 82.00% | 852.80 hPa
  • 16-07-2019 12:00:00 | 15.70°C | Oeste |22.00 km/h | 79.00% | 852.70 hPa
  • 16-07-2019 11:00:00 | 14.90°C | Oeste |17.00 km/h | 77.00% | 852.70 hPa
  • 16-07-2019 10:00:00 | 12.20°C | Oeste |17.00 km/h | 89.00% | 852.70 hPa
  • 16-07-2019 09:00:00 | 11.20°C | Noroeste |9.00 km/h | 94.00% | 852.60 hPa
  • 16-07-2019 08:00:00 | 10.40°C | Oeste |12.00 km/h | 94.00% | 852.50 hPa
  • 16-07-2019 07:00:00 | 10.40°C | Oeste |13.00 km/h | 94.00% | 852.50 hPa
  • 16-07-2019 06:00:00 | 9.40°C | Oeste |15.00 km/h | 93.00% | 852.40 hPa
  • 16-07-2019 05:00:00 | 7.80°C | Noroeste |9.00 km/h | 86.00% | 852.50 hPa
  • 16-07-2019 04:00:00 | 9.40°C | Noroeste |10.00 km/h | 87.00% | 852.90 hPa
  • 16-07-2019 02:00:00 | 12.00°C | Oeste |15.00 km/h | 92.00% | 853.50 hPa
  • 16-07-2019 01:00:00 | 12.30°C | Oeste |17.00 km/h | 90.00% | 853.80 hPa
  • 16-07-2019 00:00:00 | 12.30°C | Oeste |12.00 km/h | 90.00% | 853.60 hPa
    • diseño web asturias Información sobre el estado de las mareas, altura de la marejada, temperatura del agua y otros datos de Gijón en Asturias.

      Surf Gijón